User: anonymous   Login
Location: Unspecified
(0.0000°N, 0.0000°E)
Time: 21:23:22
(UTC+00:00)
Language:

STARLINK-31045 - Orbit

View from above orbital plane
View from above orbital plane
View from above satellite
View from above satellite

Ground track
Ground track

The orbit is defined by the following mean orbital elements,

1 58541U          26145.36881687 +.00000000 +00000-0 +24876-4 0 00002
2 58541  53.1588 143.4128 0001138  91.8481 268.2650 15.30192766    01
Epoch (UTC): 25 May 2026 08:51:05
Eccentricity: 0.0001138
inclination: 53.1588°
perigee height: 474 km
apogee height: 476 km
right ascension of ascending node: 143.4128°
argument of perigee: 91.8481°
revolutions per day: 15.30192766
mean anomaly at epoch: 268.2650°

The dashed part of the orbit path shows where the satellite is in the earth's shadow,  

DLR